Regional Weather Roundup
Issued by NWS

Home | Current Version | Previous Version | Text Only | Print | Product List | Glossary On
Versions: 1 2 3 4 5 6 7 8 9 10 11 12 13 14 15 16 17 18 19 20 21 22 23 24 25 26 27 28 29 30 31 32 33 34 35 36 37 38 39 40 41 42 43 44 45 46 47 48 49 50
000
ASUS44 KOUN 010210
RWROK

WEATHER ROUNDUP FOR OKLAHOMA
NATIONAL WEATHER SERVICE NORMAN OK
900 PM CDT SAT APR 30 2016

NOTE: "FAIR" INDICATES FEW OR NO CLOUDS BELOW 12,000 FEET WITH NO
      SIGNIFICANT WEATHER AND/OR OBSTRUCTIONS TO VISIBILITY.

OKZ001>007-009>012-014-015-017-010300-
NORTHWEST OKLAHOMA AND THE PANHANDLE

CITY           SKY/WX    TMP DP  RH WIND       PRES   REMARKS
GAGE           CLEAR     53  39  59 NW10      29.93R
GUYMON         CLOUDY    50  33  52 NW16G24   29.98R
ENID/WOODRING  CLEAR     54  46  76 NW6       29.87R
$$

OKZ016-021>023-033>039-044-045-010300-
SOUTHWEST OKLAHOMA

CITY           SKY/WX    TMP DP  RH WIND       PRES   REMARKS
LAWTON/REGL    CLEAR     61  48  62 N8        29.87R
LAWTON/FT SILL CLEAR     61  48  63 N9        29.86R
FREDERICK      CLEAR     62  51  67 N9        29.83R
CLINTON        CLEAR     55  44  66 N7        29.91R
HOBART         CLEAR     58  47  66 N7        29.89R
ALTUS AFB      CLEAR     58  45  62 N8        29.87R
$$

OKZ018>020-024>031-010300-
CENTRAL OKLAHOMA

CITY           SKY/WX    TMP DP  RH WIND       PRES   REMARKS
OKLAHOMA CITY  CLEAR     62  45  53 N10       29.88R
OKC/WILEY POST CLEAR     61  45  55 N10       29.89R
OKC/TINKER AFB CLEAR     62  45  54 N8        29.87R
STILLWATER     CLEAR     57  45  64 NW5       29.88R
GUTHRIE        CLEAR     59  44  57 N3        29.88R
$$

OKZ008-013-054>072-010300-
NORTHEAST OKLAHOMA

CITY           SKY/WX    TMP DP  RH WIND       PRES   REMARKS
TULSA          CLEAR     62  50  64 W6        29.83R
TULSA/JONES    CLEAR     63  50  62 VRB5      29.85R
PONCA CITY     CLEAR     56  45  66 NW5       29.87R
BARTLESVILLE   CLEAR     58  46  64 W3        29.86R
MUSKOGEE       CLEAR     62  54  74 N5        29.85R
$$

OKZ032-040>043-046>053-073>077-010300-
SOUTH CENTRAL/SOUTHEAST OKLAHOMA

CITY           SKY/WX    TMP DP  RH WIND       PRES   REMARKS
ARDMORE/DWNTWN CLEAR     64  52  63 CALM      29.84R
MCALESTER      PTCLDY    63  61  93 CALM      29.84R
$$




USA.gov is the U.S. government's official web portal to all federal, state and local government web resources and services.